Startseite
Über Mich
AHP4
Galerie
Sehschlangen
Tourenbuch
Bookmarks
Elektronik
Bewertung
Geschichten
[Tagesmessung] [Jahreswerte] [Information]

Messwerte vom 30.06.2022

Die letzten Messwerte von 23:58:47 Uhr:
KategorieMesswert
Temperatur [°C]21
Luftdruck [mBar]995
Sonneneinstrahlung0
Wind [km/h]0 aus Nordwest
Niederschlag [l/m²]0
rel.Luftfeucht.73.6%
CO2 [ppm]618

Diagramme
Messwerte vom 30.06.2022
Tagesaggregation
KategorieMinimumMaximumSchnittSumme
Temperatur [°C]133823.7625
Luftdruck [mBar]993999996.1313
Sonneneinstrahlung247143.6688
Wind [km/h]16
rF [%]29.387.162.43
Niederschlag [l/m²]0
CO2 [ppm]396759539.6
Einordnung alsVegetationstag
Sommertag
Heißer Tag

Messungen an benachbarten Tagen: Zur Jahresaggregation 2022
Tabelle aller Messwerte
UhrzeitTemperatur [°C]Luftdruck [mBar]SonneWind [km/h]RichtungRegen [l/m²]rF [%]CO2 [ppm]
00:01:45 16 998 0 0 N 0 74.1 679
00:04:48 16 998 0 0 N 0 74.3 683
00:07:46 16 998 0 0 N 0 74 685
00:10:50 16 998 0 0 N 0 73.7 687
00:13:48 16 998 0 0 N 0 73.7 694
00:16:46 16 998 0 0 N 0 73.9 693
00:19:47 15 999 0 0 N 0 74.7 693
00:22:47 15 998 0 0 N 0 74.9 693
00:25:46 15 998 0 0 N 0 76 693
00:28:46 15 998 0 0 N 0 76.2 703
00:31:46 15 998 0 0 N 0 76.2 706
00:34:47 15 998 0 0 N 0 76.2 708
00:37:47 15 998 0 0 N 0 76.3 709
00:40:46 15 998 0 0 N 0 76.4 711
00:43:47 15 998 0 0 N 0 76.6 706
00:46:46 15 999 0 0 N 0 76.4 705
00:49:46 15 998 0 0 N 0 76.3 705
00:52:47 15 998 0 0 N 0 77.5 710
00:55:47 15 999 0 0 N 0 78.2 717
00:58:46 15 999 0 0 N 0 78.4 720
01:01:44 15 999 0 0 N 0 78.7 726
01:04:46 15 998 0 0 N 0 77.8 717
01:07:45 15 999 0 0 N 0 78.4 723
01:10:46 15 998 0 1 N 0 79.7 723
01:13:46 15 998 0 0 N 0 80.9 725
01:16:45 15 999 0 0 N 0 80 725
01:19:45 15 999 0 0 N 0 79.8 722
01:22:47 15 999 0 0 N 0 79.9 715
01:25:48 15 998 0 0 N 0 79.8 712
01:28:45 15 998 0 0 N 0 80.4 712
01:31:45 15 998 0 0 N 0 81.2 714
01:34:48 15 999 0 0 N 0 80.6 715
01:37:45 14 998 0 0 N 0 80 720
01:40:46 14 998 0 0 N 0 80.1 720
01:43:49 14 998 0 0 N 0 80.3 729
01:46:46 14 998 0 0 N 0 79.9 723
01:49:46 14 998 0 0 N 0 79.9 729
01:52:45 14 998 0 0 N 0 79.9 732
01:55:48 14 998 0 0 N 0 80.8 729
01:58:47 14 998 0 0 N 0 80.9 723
02:01:47 14 998 0 0 N 0 81.8 729
02:04:49 14 998 0 0 N 0 82.4 726
02:07:47 14 998 0 0 N 0 81.9 726
02:10:46 14 998 0 0 N 0 81.2 728
02:13:48 14 998 0 0 N 0 81.2 732
02:16:47 14 998 0 0 N 0 81.1 737
02:19:49 14 998 0 0 N 0 80.7 738
02:22:47 14 998 0 0 N 0 80.5 738
02:25:45 14 998 0 0 N 0 80.3 734
02:28:46 14 998 0 0 N 0 80.2 734
02:31:47 14 998 0 0 N 0 81.7 746
02:34:45 14 998 0 0 N 0 82.5 743
02:37:46 14 998 0 0 N 0 82.7 741
02:40:47 14 998 0 0 NO 0 82.8 741
02:43:47 14 998 0 0 NO 0 82.5 740
02:46:47 14 998 0 0 NO 0 83 750
02:49:49 14 998 0 0 NO 0 82.8 752
02:52:48 14 998 0 0 NO 0 82.7 746
02:55:48 14 998 0 0 NO 0 83.2 739
02:58:48 14 998 0 0 NO 0 83.6 741
03:01:49 14 998 0 0 NO 0 83.7 747
03:04:48 14 998 0 0 NO 0 83.8 753
03:07:46 14 998 0 0 NO 0 84.4 750
03:10:47 14 998 0 0 NO 0 83.7 755
03:13:49 14 998 0 0 NO 0 84.4 746
03:16:47 14 998 0 2 N 0 84.4 750
03:19:47 14 998 0 1 NO 0 84.2 751
03:22:49 14 998 0 1 NO 0 83.9 757
03:25:47 14 998 0 1 N 0 83.8 759
03:28:46 14 998 0 1 NO 0 83.5 750
03:31:45 14 998 0 0 NO 0 83.4 749
03:34:49 14 998 0 2 NO 0 83.8 743
03:37:45 14 998 0 2 N 0 84 747
03:40:47 14 998 0 0 NO 0 83.4 741
03:43:49 14 998 0 3 N 0 82.9 746
03:46:48 14 998 0 1 NO 0 82.9 741
03:49:47 14 998 0 0 NO 0 82.8 737
03:52:47 14 998 0 0 NO 0 82.1 735
03:55:48 14 998 0 0 NO 0 82 742
03:58:47 14 998 0 0 NO 0 82 742
04:01:47 14 998 0 1 SO 0 82 749
04:04:48 14 998 0 0 SO 0 82.2 756
04:07:48 14 998 0 0 SO 0 82.2 749
04:10:48 14 998 0 0 SO 0 82 749
04:13:46 14 998 0 0 SO 0 81.8 748
04:16:49 14 998 0 0 SO 0 82.6 756
04:19:48 14 998 0 0 SO 0 82.7 753
04:22:45 14 998 0 0 SO 0 82.4 759
04:25:48 14 998 3 0 SO 0 82.7 756
04:28:47 14 998 5 0 SO 0 83.4 753
04:31:49 14 998 7 0 O 0 83.9 759
04:34:47 14 998 9 0 O 0 84.1 753
04:37:46 14 998 13 0 O 0 84.7 746
04:40:47 14 998 17 0 O 0 84.9 748
04:43:48 14 998 23 0 O 0 84.8 751
04:46:47 13 998 29 0 O 0 84.6 750
04:49:48 13 998 34 0 O 0 84.9 744
04:52:48 13 998 40 0 N 0 85.3 748
04:55:46 13 997 47 0 N 0 85.3 753
04:58:47 13 998 54 0 N 0 85.6 750
05:01:49 13 998 61 0 N 0 85.2 750
05:04:49 13 997 69 0 N 0 85.4 742
05:07:46 13 998 79 0 N 0 85.6 735
05:10:46 13 997 89 0 N 0 85.2 733
05:13:48 13 997 98 0 N 0 85.3 736
05:16:48 13 997 105 0 NO 0 85.5 743
05:19:48 13 998 111 0 NO 0 85.6 741
05:22:49 13 998 116 0 NO 0 86 738
05:25:48 13 997 120 0 S 0 85.9 737
05:28:48 13 997 123 0 S 0 85.9 733
05:31:49 14 997 126 0 S 0 85.9 727
05:34:49 14 997 129 0 NO 0 85.8 736
05:37:50 14 997 132 0 NO 0 86 745
05:40:49 14 998 135 1 N 0 86.7 743
05:43:48 14 997 138 0 N 0 87.1 735
05:46:48 14 997 140 0 O 0 87 730
05:49:47 14 997 141 0 N 0 86.8 725
05:52:49 14 998 143 1 NO 0 86.6 735
05:55:48 14 998 143 0 N 0 86.7 736
05:58:47 14 997 144 0 N 0 86 737
06:01:47 14 998 145 0 O 0 85.6 733
06:04:46 14 998 144 0 O 0 85.1 727
06:07:47 14 997 145 0 O 0 84.9 728
06:10:49 14 997 146 0 O 0 84.8 732
06:13:48 14 998 146 0 O 0 84.9 739
06:16:46 14 997 147 0 O 0 85 733
06:19:46 14 998 147 0 O 0 85 735
06:22:47 14 998 148 0 O 0 84.9 734
06:25:49 14 998 150 0 O 0 85 732
06:28:47 14 998 152 0 O 0 85.2 725
06:31:47 14 997 154 0 O 0 85.6 733
06:34:50 14 998 157 0 O 0 85.5 733
06:37:46 14 997 161 0 O 0 85.4 737
06:40:48 14 998 164 0 O 0 85.1 736
06:43:48 14 997 166 0 O 0 84.9 737
06:46:46 15 998 167 0 O 0 85 741
06:49:48 15 997 168 0 O 0 84.9 741
06:52:46 15 998 169 0 N 0 85.1 738
06:55:48 15 997 171 0 N 0 85.3 709
06:58:47 15 998 173 0 N 0 84.8 496
07:01:48 15 998 174 0 N 0 84.7 427
07:04:47 15 997 176 0 N 0 84.5 407
07:07:47 15 998 176 0 N 0 84.4 410
07:10:46 15 998 177 0 N 0 84.4 410
07:13:47 16 997 178 0 SO 0 84.3 407
07:16:50 16 997 179 0 SO 0 84 408
07:19:48 16 998 179 0 SO 0 83.8 404
07:22:47 16 998 180 0 O 0 83.6 404
07:25:47 16 998 182 0 O 0 83.3 404
07:28:48 16 997 184 0 O 0 83.1 410
07:31:46 17 997 184 0 O 0 82.9 433
07:34:50 17 998 185 0 O 0 82.6 460
07:37:47 18 998 186 0 SO 0 82.1 474
07:40:48 18 998 186 0 SO 0 80.9 483
07:43:49 18 997 188 0 SO 0 79.7 480
07:46:48 18 998 194 0 SO 0 79 483
07:49:47 18 997 199 0 SO 0 78.7 483
07:52:48 19 998 201 0 N 0 78.1 485
07:55:45 19 997 200 0 N 0 77.7 489
07:58:45 19 996 195 0 N 0 77.1 489
08:01:50 20 998 196 0 NO 0 73 503
08:04:51 20 997 199 0 S 0 73.6 509
08:07:49 20 998 197 0 SO 0 74.6 521
08:10:49 20 998 199 0 SO 0 75.3 524
08:13:48 21 998 200 0 O 0 74.5 536
08:16:48 21 998 203 1 S 0 72.9 541
08:19:48 21 997 206 0 S 0 72.3 545
08:22:48 21 997 193 4 S 0 71.3 545
08:25:49 21 998 185 2 N 0 70.4 422
08:28:46 21 997 204 1 N 0 70.4 407
08:31:49 21 998 207 1 NO 0 71 407
08:34:48 21 997 204 0 O 0 71.5 404
08:37:47 21 997 199 0 SO 0 71.6 407
08:40:48 21 998 196 0 S 0 71.1 405
08:43:48 21 997 196 3 N 0 71.2 407
08:46:48 21 998 195 0 N 0 70.5 404
08:49:48 21 998 199 1 O 0 71 404
08:52:47 21 998 204 0 S 0 70.9 407
08:55:48 22 997 209 2 O 0 70.6 404
08:58:49 22 997 207 7 SO 0 69.7 404
09:01:49 22 997 203 6 S 0 68.4 404
09:04:49 22 997 204 8 S 0 68.3 407
09:07:49 22 998 205 2 SO 0 68.1 404
09:10:51 22 997 202 2 SO 0 68.4 404
09:13:49 22 998 207 4 O 0 68.4 407
09:16:48 22 998 211 2 SW 0 69.2 407
09:19:49 22 997 212 4 0 68.7 403
09:22:50 22 997 212 6 SO 0 69.8 404
09:25:48 23 997 212 2 N 0 70.1 406
09:28:48 23 997 209 5 N 0 69.6 407
09:31:50 22 998 206 0 SO 0 68.2 406
09:34:49 22 998 208 1 SO 0 69.1 404
09:37:50 22 998 210 1 SW 0 69.1 407
09:40:49 23 997 211 5 NO 0 68.8 407
09:43:50 23 998 216 2 SO 0 67.7 404
09:46:47 23 997 215 6 N 0 67.9 405
09:49:48 23 997 217 2 N 0 67.1 407
09:52:52 23 997 220 6 SO 0 67.5 404
09:55:48 24 997 220 1 N 0 66.2 406
09:58:48 24 997 221 2 SW 0 65.9 407
10:01:49 24 997 220 12 SO 0 65.7 404
10:04:47 25 997 220 7 S 0 65 407
10:07:49 25 996 214 11 S 0 62.9 406
10:10:48 25 998 205 2 S 0 62.4 407
10:13:47 24 997 204 2 S 0 63.4 404
10:16:49 24 997 201 2 SO 0 63.6 406
10:19:48 24 996 200 3 S 0 64 406
10:22:47 24 997 201 2 O 0 64 407
10:25:50 24 997 200 11 SO 0 64.3 404
10:28:48 24 997 198 2 O 0 65.6 404
10:31:48 24 997 200 2 N 0 66.1 404
10:34:45 24 996 201 6 S 0 65.4 405
10:37:47 24 996 200 1 W 0 66.3 406
10:40:47 24 997 201 8 S 0 66.3 407
10:43:48 25 997 201 14 S 0 65.7 404
10:46:46 25 997 201 6 S 0 65.6 404
10:49:49 25 997 201 3 S 0 65.2 406
10:52:48 25 997 201 4 SW 0 64.9 407
10:55:49 25 997 201 2 SO 0 64.8 406
10:58:52 25 997 198 3 W 0 64.6 407
11:01:45 25 996 199 1 N 0 64.7 407
11:04:47 25 997 201 4 O 0 63.7 407
11:07:51 25 996 202 1 NO 0 63.7 407
11:10:46 25 996 204 3 0 64.6 404
11:13:48 26 996 206 6 S 0 63.8 407
11:16:49 26 996 203 5 SO 0 63.3 406
11:19:46 26 996 206 3 S 0 62.7 404
11:22:50 26 996 206 9 S 0 62.9 405
11:25:50 26 997 205 4 SO 0 62.5 407
11:28:49 27 996 206 6 O 0 61.6 407
11:31:48 27 997 206 9 NW 0 60 406
11:34:49 27 996 206 2 S 0 60.7 407
11:37:47 27 997 207 4 O 0 58.7 406
11:40:48 27 996 207 5 SO 0 58.2 407
11:43:49 27 996 208 3 O 0 59.2 404
11:46:50 27 996 210 14 NW 0 57.7 407
11:49:49 27 996 213 0 SW 0 59.2 406
11:52:48 27 996 206 12 SO 0 59.6 404
11:55:47 27 996 209 3 S 0 58.6 406
11:58:46 27 997 214 5 S 0 58.5 407
12:01:49 27 996 214 4 NO 0 59.5 406
12:04:47 27 997 211 3 SO 0 58.2 407
12:07:49 27 996 217 4 SW 0 59.5 404
12:10:48 29 996 218 6 S 0 57.9 403
12:13:47 29 996 217 4 S 0 54.5 405
12:16:46 29 996 218 8 S 0 53.7 404
12:19:48 31 996 219 6 S 0 51 406
12:22:49 31 996 218 1 SO 0 48.4 406
12:25:47 32 996 217 5 SO 0 47.7 407
12:28:46 31 995 217 0 SO 0 46.5 407
12:31:47 31 996 220 3 SO 0 47.2 410
12:34:46 31 996 221 4 O 0 48.4 407
12:37:47 32 995 221 2 N 0 46.2 404
12:40:49 33 996 220 3 O 0 44.8 406
12:43:48 33 997 221 1 NO 0 43.9 407
12:46:47 32 996 221 4 SO 0 45.3 407
12:49:51 33 996 222 6 SO 0 45.7 400
12:52:46 33 996 225 4 O 0 43.2 406
12:55:51 32 996 224 7 SO 0 43.9 406
12:58:48 33 996 223 8 S 0 44.8 407
13:01:49 33 996 225 4 SO 0 41.2 403
13:04:32 32 996 227 6 SO 0 40 404
13:07:48 32 995 223 2 NW 0 43.5 406
13:10:47 31 996 223 1 N 0 44.3 404
13:13:49 30 996 227 1 SO 0 48.8 406
13:16:46 30 996 229 7 N 0 49.6 406
13:19:48 30 996 228 2 SO 0 47.4 407
13:22:50 30 996 225 7 NW 0 47.3 406
13:25:47 30 996 226 6 O 0 47.8 406
13:28:49 29 996 227 0 NW 0 49.5 407
13:31:48 29 996 230 2 W 0 51.3 407
13:34:49 31 996 226 8 SW 0 48 404
13:37:49 31 995 223 1 NW 0 46.6 404
13:40:48 31 996 226 4 S 0 46.2 408
13:43:31 29 996 227 5 S 0 40 406
13:46:47 32 995 228 5 NO 0 43.1 404
13:49:47 31 995 229 1 W 0 42.8 407
13:52:48 32 995 230 3 S 0 44.5 405
13:55:30 30 995 230 2 O 0 40 404
13:58:50 33 995 231 4 O 0 41.7 405
14:01:46 32 995 231 3 N 0 41.8 407
14:04:50 33 995 232 0 SO 0 42.9 404
14:07:47 34 996 228 1 SO 0 42.1 406
14:10:46 34 995 234 3 S 0 41.4 404
14:13:49 34 995 236 2 SW 0 40.9 404
14:16:47 35 995 237 5 W 0 39.1 404
14:19:50 35 995 239 3 NW 0 38.6 404
14:22:49 35 995 239 6 S 0 38.1 407
14:25:47 36 995 240 3 SO 0 39.1 404
14:28:46 36 996 240 4 W 0 38.1 407
14:31:48 36 995 241 5 SO 0 36.5 406
14:34:49 36 995 241 7 S 0 37.2 405
14:37:47 37 995 241 2 S 0 35.8 404
14:40:46 37 996 241 5 N 0 35.3 404
14:43:49 35 995 242 0 S 0 35.6 408
14:46:45 35 995 241 5 S 0 36.9 404
14:49:48 33 995 232 4 NW 0 37.9 401
14:52:48 32 995 243 6 N 0 40.6 406
14:55:47 32 995 243 4 S 0 41.3 405
14:59:30 32 995 243 6 W 0 42.1 407
15:01:49 32 995 243 3 O 0 41.5 404
15:04:47 33 995 232 4 O 0 41.4 407
15:07:48 32 995 244 12 NO 0 40.6 407
15:10:47 32 995 244 9 S 0 41.4 404
15:13:46 32 995 244 6 O 0 42 404
15:16:47 33 995 233 7 N 0 40.6 407
15:19:47 32 995 231 5 NW 0 39.2 407
15:22:48 31 995 229 4 SO 0 41.7 404
15:25:47 31 995 230 6 S 0 43.8 407
15:28:47 31 995 245 0 O 0 44.1 407
15:31:46 31 995 233 1 0 44.8 404
15:34:47 32 995 234 5 S 0 42.5 406
15:37:47 32 995 235 1 S 0 42 404
15:40:48 32 995 234 2 O 0 41.5 407
15:43:48 32 995 245 1 SO 0 42 404
15:46:47 33 995 246 4 O 0 39.6 404
15:49:49 34 995 245 14 SW 0 39.3 404
15:52:46 35 995 246 5 S 0 39.3 404
15:55:47 35 994 246 1 SO 0 36.3 407
15:58:50 36 995 246 3 NO 0 35.8 404
16:01:49 36 995 246 7 SW 0 33.7 407
16:04:46 35 995 246 7 0 34.1 404
16:07:47 34 995 246 2 NO 0 36.6 406
16:10:48 34 995 233 9 S 0 37.4 404
16:13:47 33 995 246 0 S 0 38.2 408
16:16:48 34 995 246 7 SO 0 38.9 404
16:19:46 35 995 246 5 S 0 37.5 407
16:22:48 36 995 234 5 SO 0 35.9 408
16:25:48 36 995 236 3 SW 0 33.6 405
16:28:48 34 995 242 0 N 0 35.9 396
16:31:48 34 995 243 0 SO 0 36.6 407
16:34:48 34 995 247 5 SO 0 38.9 406
16:37:50 35 995 239 8 S 0 37.8 408
16:40:50 35 995 240 2 W 0 36.7 407
16:43:48 35 995 231 1 SO 0 35.7 406
16:46:47 33 995 230 4 O 0 37.1 406
16:49:47 32 995 230 4 SO 0 39.1 404
16:52:49 32 995 227 1 SO 0 41 405
16:55:50 31 995 226 0 O 0 41.8 404
16:58:50 31 995 226 1 O 0 42.1 407
17:01:49 31 995 226 5 SO 0 43.8 407
17:04:48 31 995 227 3 SO 0 44.2 403
17:07:48 31 995 231 1 SO 0 43 404
17:10:46 31 995 234 0 O 0 42.5 406
17:13:48 32 995 237 5 O 0 43.1 403
17:16:49 32 995 232 13 SO 0 42.4 406
17:19:49 32 995 232 8 0 41.8 406
17:22:48 33 995 247 5 SO 0 41.9 403
17:25:46 34 995 247 2 O 0 38.1 405
17:28:47 36 995 247 4 O 0 37.3 404
17:31:49 37 995 247 10 S 0 36.9 406
17:34:46 37 995 247 2 SO 0 34.5 407
17:37:48 38 995 247 2 SO 0 32.4 407
17:40:48 38 995 247 4 S 0 31.3 404
17:43:45 38 995 247 5 0 31 404
17:46:48 37 995 247 5 S 0 30.9 404
17:49:48 37 994 247 4 NW 0 31.8 407
17:52:46 37 995 247 5 SO 0 31.6 404
17:55:47 38 995 247 2 SO 0 31.9 406
17:58:48 37 995 247 3 SO 0 30.6 404
18:01:50 37 995 247 1 NW 0 31.3 407
18:04:48 37 994 247 0 O 0 32 404
18:07:49 37 995 247 3 SO 0 32.2 407
18:10:47 38 994 247 7 SO 0 31.9 403
18:13:49 38 994 247 10 S 0 30.2 404
18:16:51 38 994 247 16 SO 0 29.5 407
18:19:48 38 994 246 3 SO 0 29.3 406
18:22:47 37 995 247 2 O 0 30.1 404
18:25:47 36 994 246 5 O 0 30.8 401
18:28:47 37 994 247 4 S 0 31.9 407
18:31:49 37 994 246 5 SO 0 31.6 410
18:34:47 37 994 246 4 O 0 31.2 413
18:37:48 36 994 246 6 SO 0 31.2 424
18:40:50 36 994 246 5 S 0 32.1 427
18:43:52 36 995 246 10 SO 0 32.1 428
18:46:48 36 994 246 4 SO 0 32 433
18:49:48 36 994 246 2 NW 0 31.4 434
18:52:49 35 994 246 0 NO 0 32.3 439
18:55:45 34 994 245 1 N 0 33 448
18:58:46 33 994 229 0 O 0 35 471
19:01:47 32 994 234 0 N 0 36.9 474
19:04:48 31 994 223 2 O 0 38.8 465
19:07:46 30 994 221 1 NO 0 40.7 474
19:10:49 30 995 220 3 SO 0 41.9 482
19:13:47 30 994 220 3 O 0 42.4 491
19:16:48 30 994 218 3 SO 0 43 497
19:19:48 29 994 221 1 NO 0 44.2 492
19:22:48 29 994 216 3 NO 0 45.6 483
19:25:48 29 994 216 2 O 0 45.5 480
19:28:47 29 993 232 4 O 0 45.4 478
19:31:45 29 994 217 0 O 0 45.6 476
19:34:49 29 994 215 0 O 0 46.1 472
19:37:49 28 994 215 1 SO 0 47.1 469
19:40:48 28 994 214 1 O 0 47.1 480
19:43:50 28 994 210 1 NW 0 47.7 483
19:46:46 28 994 210 4 O 0 47.9 497
19:49:50 28 994 209 0 SO 0 48.4 500
19:52:48 28 994 209 0 N 0 48.2 502
19:55:48 28 994 208 1 O 0 49.2 500
19:58:48 28 993 207 0 O 0 49.6 500
20:01:49 28 994 206 0 NW 0 49.7 509
20:04:48 28 994 204 2 0 49.7 522
20:07:49 28 994 203 0 N 0 49.9 539
20:10:48 28 993 201 0 NO 0 50.4 556
20:13:48 27 994 200 3 S 0 50.5 566
20:16:48 27 993 198 2 S 0 51 568
20:19:48 27 994 196 0 O 0 50.9 560
20:22:48 27 995 195 0 N 0 50.9 560
20:25:47 27 994 194 2 O 0 51.1 569
20:28:49 27 994 192 0 O 0 52.9 582
20:31:49 27 994 190 0 N 0 53.1 574
20:34:47 27 994 188 0 N 0 53.5 564
20:37:47 27 994 185 0 N 0 54.1 558
20:40:49 26 994 183 0 NO 0 55.6 559
20:43:50 26 994 181 0 N 0 55.9 553
20:46:50 26 994 178 0 N 0 55.7 564
20:49:49 26 994 176 0 O 0 55.7 574
20:52:47 26 994 173 0 N 0 56.6 573
20:55:48 26 994 169 1 NO 0 57.2 568
20:58:47 26 993 165 0 N 0 57.6 567
21:01:49 25 993 161 0 N 0 58.4 563
21:04:45 25 993 158 1 O 0 58.7 556
21:07:49 25 994 153 0 SO 0 58.7 562
21:10:47 25 994 147 0 N 0 58.8 569
21:13:47 25 994 141 0 O 0 58.9 576
21:16:49 25 993 135 0 NO 0 59.2 585
21:19:48 25 994 129 1 N 0 60 583
21:22:47 25 994 122 0 N 0 60.5 585
21:25:48 25 994 114 2 SW 0 60.7 597
21:28:49 25 994 105 1 SO 0 60.9 605
21:31:47 25 994 97 2 O 0 61 611
21:34:48 25 994 89 2 O 0 60.5 609
21:37:48 25 994 80 0 NO 0 60.2 603
21:40:49 25 994 71 1 SO 0 60.2 604
21:43:50 25 994 63 2 O 0 60.4 610
21:46:47 25 994 53 1 W 0 60.5 605
21:49:49 25 995 45 1 NW 0 60.7 597
21:52:48 25 994 39 0 NW 0 61.1 589
21:55:46 25 994 32 1 O 0 61.7 589
21:58:49 24 994 25 0 NO 0 61.8 600
22:01:51 24 994 20 0 NO 0 62 604
22:04:45 24 994 14 1 N 0 62.2 597
22:07:48 24 994 10 0 O 0 62.6 597
22:10:49 24 994 7 0 NW 0 62.9 600
22:13:48 24 995 5 0 NW 0 63.1 609
22:16:48 24 995 4 2 N 0 63.6 615
22:19:47 24 995 0 1 O 0 64 609
22:22:46 24 994 0 0 NW 0 64.5 626
22:25:48 23 994 0 0 W 0 65 635
22:28:48 23 995 0 0 NO 0 65 635
22:31:48 23 995 0 0 N 0 65.4 623
22:34:46 23 994 0 0 N 0 65.4 588
22:37:48 23 995 0 0 O 0 65.9 595
22:40:48 23 994 0 0 O 0 66.4 600
22:43:48 23 995 0 0 O 0 66.3 638
22:46:45 23 994 0 0 O 0 66.8 647
22:49:48 23 995 0 0 O 0 67.6 653
22:52:47 23 994 0 2 NO 0 68.4 632
22:55:47 23 994 0 3 0 68.8 620
22:58:48 23 994 0 0 N 0 68.6 620
23:01:48 23 994 0 0 N 0 68.2 620
23:04:46 22 994 0 0 N 0 68 626
23:07:51 22 994 0 0 SO 0 68.9 633
23:10:49 22 994 0 0 SO 0 69.3 629
23:13:47 22 994 0 0 SO 0 68.9 620
23:16:46 22 994 0 0 O 0 69.1 605
23:19:47 22 995 0 0 SO 0 69.1 603
23:22:49 22 994 0 0 SO 0 69.2 600
23:25:48 22 994 0 0 SO 0 69.1 604
23:28:48 22 994 0 0 O 0 69.1 610
23:31:45 22 994 0 0 O 0 69.3 618
23:34:50 22 995 0 0 O 0 69.8 623
23:37:48 22 994 0 0 O 0 70 616
23:40:48 21 995 0 2 SO 0 70.1 617
23:43:47 21 994 0 0 SO 0 70.3 609
23:46:47 21 994 0 0 SO 0 71.6 612
23:49:47 21 994 0 0 NW 0 72 621
23:52:48 21 994 0 0 NW 0 72.7 632
23:55:47 21 994 0 0 NW 0 73.3 626
23:58:47 21 995 0 0 NW 0 73.6 618

Letzte Änderung : 04-Jan-2022
Copyright Jens Köhler, Wolfsburg, Obere Dorfstraße 10d